GW1995 Weather Reports


Display with metric or nautical units.
time (UTC)temp
F
wind
direction
speed
MPH
gust
MPH
rain 1hr
in
rain 24hr
in
rain mn
in
humidity
%
barometer
mb
20260502202520 64 302 3.0 7.0 0.00 0.00 0.00 29 1013.3
20260502202019 64 249 3.0 8.0 0.00 0.00 0.00 30 1013.6
20260502201514 64 264 3.0 6.0 0.00 0.00 0.00 30 1013.6
20260502201010 64 277 3.0 3.0 0.00 0.00 0.00 30 1013.8
20260502200507 63 240 5.0 7.0 0.00 0.00 0.00 31 1013.9
20260502200005 64 193 8.0 10.0 0.00 0.00 0.00 29 1013.9
20260502195502 63 283 4.0 6.0 0.00 0.00 0.00 31 1013.8
20260502194958 62 274 5.0 11.0 0.00 0.00 0.00 30 1014.1
20260502194455 63 262 3.0 7.0 0.00 0.00 0.00 30 1013.8
20260502193950 63 206 6.0 9.0 0.00 0.00 0.00 31 1013.9
20260502193448 64 259 4.0 7.0 0.00 0.00 0.00 30 1014.4
20260502192944 62 237 2.0 9.0 0.00 0.00 0.00 30 1014.4
20260502192441 62 240 4.0 7.0 0.00 0.00 0.00 31 1014.5
20260502191937 62 248 4.0 6.0 0.00 0.00 0.00 31 1014.5
20260502191435 61 236 3.0 6.0 0.00 0.00 0.00 32 1014.5
20260502190933 61 246 4.0 7.0 0.00 0.00 0.00 32 1014.7
20260502190430 60 224 2.0 2.0 0.00 0.00 0.00 32 1014.7
20260502185926 61 250 6.0 8.0 0.00 0.00 0.00 31 1015.0
20260502185421 61 207 3.0 5.0 0.00 0.00 0.00 33 1014.9
20260502184919 60 212 3.0 6.0 0.00 0.00 0.00 33 1015.0
20260502184414 60 196 6.0 7.0 0.00 0.00 0.00 34 1015.1
20260502183911 60 277 3.0 5.0 0.00 0.00 0.00 32 1015.2
20260502183407 60 218 2.0 7.0 0.00 0.00 0.00 32 1015.5
20260502182903 60 219 3.0 8.0 0.00 0.00 0.00 32 1015.4
20260502182358 60 248 3.0 6.0 0.00 0.00 0.00 32 1015.2
20260502181855 59 220 4.0 8.0 0.00 0.00 0.00 33 1015.4
20260502181353 59 246 2.0 2.0 0.00 0.00 0.00 32 1015.7
20260502180851 58 214 1.0 2.0 0.00 0.00 0.00 34 1015.8
20260502180348 59 181 3.0 5.0 0.00 0.00 0.00 34 1015.8
20260502170306 57 319 5.0 11.0 0.00 0.00 0.00 35 1016.7
20260502164255 56 293 2.0 3.0 0.00 0.00 0.00 34 1016.9
20260502163750 56 296 4.0 9.0 0.00 0.00 0.00 35 1017.0
20260502163247 56 264 2.0 5.0 0.00 0.00 0.00 35 1017.1
20260502162744 56 253 2.0 6.0 0.00 0.00 0.00 34 1017.0
20260502162240 56 195 4.0 6.0 0.00 0.00 0.00 36 1017.2
20260502161737 56 250 1.0 6.0 0.00 0.00 0.00 36 1017.2
20260502161234 55 242 5.0 6.0 0.00 0.00 0.00 36 1017.2
20260502160732 56 216 5.0 8.0 0.00 0.00 0.00 35 1017.2
20260502160231 55 239 2.0 5.0 0.00 0.00 0.00 37 1017.5
20260502152155 54 317 5.0 7.0 0.00 0.00 0.00 38 1017.8
20260502151652 55 298 5.0 6.0 0.00 0.00 0.00 38 1017.6
20260502151149 54 293 2.0 3.0 0.00 0.00 0.00 39 1017.8
20260502150647 53 246 2.0 3.0 0.00 0.00 0.00 39 1017.8
20260502150143 54 276 4.0 8.0 0.00 0.00 0.00 39 1017.7
20260502140107 50 284 2.0 6.0 0.00 0.00 0.00 45 1018.3
20260502130532 43 239 1.0 1.0 0.00 0.00 0.00 63 1018.3
20260502123515 40 214 1.0 1.0 0.00 0.00 0.00 66 1018.4
20260502123011 40 215 1.0 1.0 0.00 0.00 0.00 66 1018.4
20260502122508 39 215 0.0 1.0 0.00 0.00 0.00 67 1018.4
20260502122006 38 215 0.0 0.0 0.00 0.00 0.00 69 1018.3
20260502121503 38 216 0.0 0.0 0.00 0.00 0.00 70 1018.2
20260502121000 37 215 0.0 1.0 0.00 0.00 0.00 70 1018.1
20260502120456 37 216 0.0 0.0 0.00 0.00 0.00 71 1018.1
20260502115450 36 216 0.0 0.0 0.00 0.00 0.00 75 1018.2
20260502114946 36 216 0.0 0.0 0.00 0.00 0.00 76 1018.2
20260502114443 35 215 0.0 0.0 0.00 0.00 0.00 76 1018.1
20260502113941 34 215 1.0 1.0 0.00 0.00 0.00 77 1018.0
20260502113438 34 215 0.0 1.0 0.00 0.00 0.00 77 1018.1
20260502112937 34 215 1.0 1.0 0.00 0.00 0.00 78 1018.1
20260502112434 33 214 1.0 2.0 0.00 0.00 0.00 78 1017.9
20260502111931 33 216 0.0 1.0 0.00 0.00 0.00 77 1017.9
20260502111428 33 216 1.0 1.0 0.00 0.00 0.00 79 1018.1
20260502110926 33 216 1.0 1.0 0.00 0.00 0.00 80 1017.9
20260502110423 32 216 0.0 1.0 0.00 0.00 0.00 81 1018.0
20260502105920 32 216 0.0 0.0 0.00 0.00 0.00 80 1018.0
20260502105417 33 216 0.0 1.0 0.00 0.00 0.00 80 1018.0
20260502104916 33 216 0.0 0.0 0.00 0.00 0.00 80 1018.0
20260502104412 33 216 0.0 0.0 0.00 0.00 0.00 80 1018.1
20260502103909 33 216 0.0 0.0 0.00 0.00 0.00 80 1017.8
20260502103408 33 216 0.0 0.0 0.00 0.00 0.00 80 1017.9
20260502102904 32 216 0.0 0.0 0.00 0.00 0.00 80 1018.0
20260502102400 33 216 0.0 0.0 0.00 0.00 0.00 79 1018.0
20260502101858 33 216 0.0 0.0 0.00 0.00 0.00 79 1017.8
20260502101356 33 216 0.0 0.0 0.00 0.00 0.00 79 1017.9
20260502100854 33 216 0.0 0.0 0.00 0.00 0.00 78 1018.1
20260502100353 33 216 0.0 0.0 0.00 0.00 0.00 78 1017.9
20260502091327 34 215 0.0 1.0 0.00 0.00 0.00 78 1017.9
20260502090825 34 215 0.0 0.0 0.00 0.00 0.00 78 1017.9
20260502090321 34 215 0.0 0.0 0.00 0.00 0.00 79 1017.9
20260502071216 36 216 0.0 0.0 0.00 0.00 0.00 73 1018.1
20260502070715 36 216 0.0 0.0 0.00 0.00 0.00 73 1018.2
20260502070212 36 216 0.0 1.0 0.00 0.00 0.00 72 1018.1
20260502065710 36 216 0.0 1.0 0.00 0.00 0.00 72 1018.1
20260502065208 36 216 0.0 1.0 0.00 0.00 0.00 72 1018.2
20260502064706 36 216 0.0 0.0 0.00 0.00 0.00 72 1018.2
20260502064157 36 216 0.0 0.0 0.00 0.00 0.00 72 1018.3
20260502063655 37 216 0.0 0.0 0.00 0.00 0.00 72 1018.3
20260502063153 36 216 0.0 0.0 0.00 0.00 0.00 72 1018.4
20260502062649 37 216 0.0 0.0 0.00 0.00 0.00 72 1018.4
20260502062147 37 216 0.0 1.0 0.00 0.00 0.00 72 1018.3
20260502061645 37 216 0.0 1.0 0.00 0.00 0.00 71 1018.2
20260502061142 37 216 0.0 0.0 0.00 0.00 0.00 71 1018.3
20260502060637 37 216 0.0 0.0 0.00 0.00 0.00 70 1018.3
20260502060133 38 216 0.0 1.0 0.00 0.00 0.00 69 1018.4
20260502055631 38 216 0.0 1.0 0.00 0.00 0.00 68 1018.3
20260502055129 38 216 0.0 1.0 0.00 0.00 0.00 67 1018.4
20260502054628 38 216 1.0 1.0 0.00 0.00 0.00 67 1018.4
20260502054125 38 216 0.0 0.0 0.00 0.00 0.00 68 1018.3
20260502053622 38 216 1.0 1.0 0.00 0.00 0.00 67 1018.3
20260502053119 38 216 0.0 1.0 0.00 0.00 0.00 67 1018.3
20260502052618 39 216 0.0 0.0 0.00 0.00 0.00 67 1018.4
20260502052115 39 216 0.0 0.0 0.00 0.00 0.00 65 1018.4
20260502051613 39 215 1.0 1.0 0.00 0.00 0.00 65 1018.4
20260502051111 39 219 0.0 1.0 0.00 0.00 0.00 66 1018.2
20260502050607 39 218 1.0 1.0 0.00 0.00 0.00 65 1018.4
20260502050104 39 243 1.0 1.0 0.00 0.00 0.00 65 1018.2
20260502045600 39 243 1.0 1.0 0.00 0.00 0.00 66 1018.3
20260502045058 40 243 1.0 1.0 0.00 0.00 0.00 64 1018.3
20260502044554 40 244 1.0 2.0 0.00 0.00 0.00 63 1018.1
20260502044051 40 251 1.0 2.0 0.00 0.00 0.00 64 1018.1
20260502043548 40 251 1.0 2.0 0.00 0.00 0.00 64 1018.3
20260502043044 41 252 1.0 1.0 0.00 0.00 0.00 62 1018.3
20260502042539 40 268 1.0 1.0 0.00 0.00 0.00 63 1018.3
20260502042037 41 268 1.0 1.0 0.00 0.00 0.00 64 1018.2
20260502041535 41 268 1.0 1.0 0.00 0.00 0.00 62 1018.1
20260502041032 41 269 1.0 1.0 0.00 0.00 0.00 62 1018.1
20260502040528 41 269 1.0 1.0 0.00 0.00 0.00 62 1018.2
20260502040025 41 269 0.0 1.0 0.00 0.00 0.00 61 1018.3
20260502035521 41 269 0.0 1.0 0.00 0.00 0.00 61 1018.4
20260502035019 42 269 1.0 1.0 0.00 0.00 0.00 60 1018.1
20260502034516 42 269 0.0 1.0 0.00 0.00 0.00 60 1018.3
20260502034015 42 269 0.0 1.0 0.00 0.00 0.00 59 1018.4
20260502033513 42 270 0.0 1.0 0.00 0.00 0.00 60 1018.4
20260502033010 42 270 1.0 1.0 0.00 0.00 0.00 58 1018.4
20260502032505 42 270 1.0 1.0 0.00 0.00 0.00 58 1018.5
20260502032003 42 270 0.0 1.0 0.00 0.00 0.00 57 1018.4
20260502031501 43 270 0.0 1.0 0.00 0.00 0.00 56 1018.2
20260502030958 43 270 1.0 1.0 0.00 0.00 0.00 54 1018.3
20260502030456 43 270 1.0 2.0 0.00 0.00 0.00 56 1018.3
20260502025954 43 283 0.0 1.0 0.00 0.00 0.00 54 1018.4
20260502025451 44 283 0.0 1.0 0.00 0.00 0.00 54 1018.2
20260502024949 44 283 1.0 1.0 0.00 0.00 0.00 51 1018.2
20260502024447 44 283 0.0 1.0 0.00 0.00 0.00 52 1018.2
20260502023945 44 283 0.0 1.0 0.00 0.00 0.00 51 1018.3
20260502023442 45 283 1.0 1.0 0.00 0.00 0.00 50 1018.2
20260502022939 45 283 1.0 1.0 0.00 0.00 0.00 49 1018.3
20260502022435 45 283 0.0 0.0 0.00 0.00 0.00 48 1018.1
20260502021932 45 283 0.0 0.0 0.00 0.00 0.00 47 1018.2
20260502021430 46 283 0.0 1.0 0.00 0.00 0.00 46 1018.3
20260502020927 46 283 1.0 1.0 0.00 0.00 0.00 44 1018.1
20260502020425 46 283 0.0 1.0 0.00 0.00 0.00 43 1018.0
20260502015921 47 283 0.0 0.0 0.00 0.00 0.00 43 1018.0
20260502015419 47 283 0.0 0.0 0.00 0.00 0.00 43 1018.0
20260502014915 47 283 0.0 0.0 0.00 0.00 0.00 41 1017.8
20260502014413 48 283 0.0 1.0 0.00 0.00 0.00 41 1018.1
20260502013909 48 284 0.0 1.0 0.00 0.00 0.00 40 1018.0
20260502013404 49 284 0.0 1.0 0.00 0.00 0.00 38 1017.9
20260502012901 49 284 0.0 1.0 0.00 0.00 0.00 36 1017.9
20260502012359 50 284 0.0 0.0 0.00 0.00 0.00 35 1017.7
20260502011856 50 284 0.0 0.0 0.00 0.00 0.00 34 1017.8
20260502011352 50 316 0.0 0.0 0.00 0.00 0.00 34 1017.7
20260502010849 50 317 0.0 0.0 0.00 0.00 0.00 33 1017.8
20260502010346 51 341 0.0 1.0 0.00 0.00 0.00 32 1017.6
20260502005843 51 342 1.0 2.0 0.00 0.00 0.00 33 1017.8
20260502005341 51 280 0.0 1.0 0.00 0.00 0.00 33 1017.7
20260502004838 51 284 0.0 2.0 0.00 0.00 0.00 32 1017.5
20260502004334 51 42 2.0 2.0 0.00 0.00 0.00 32 1017.7
20260502003832 51 63 1.0 6.0 0.00 0.00 0.00 32 1017.6
20260502003328 52 43 3.0 6.0 0.00 0.00 0.00 32 1017.5
20260502002825 52 50 1.0 5.0 0.00 0.00 0.00 32 1017.5
20260502002322 52 13 1.0 3.0 0.00 0.00 0.00 31 1017.5
20260502001819 51 32 1.0 3.0 0.00 0.00 0.00 32 1017.6
20260502001317 52 359 1.0 5.0 0.00 0.00 0.00 31 1017.8
20260502000814 52 35 3.0 8.0 0.00 0.00 0.00 31 1017.5
20260502000313 52 306 0.0 3.0 0.00 0.00 0.00 31 1017.7
20260501235808 52 26 1.0 3.0 0.00 0.00 0.00 31 1017.5
20260501235305 52 350 1.0 6.0 0.00 0.00 0.00 31 1017.5
20260501234759 52 24 3.0 3.0 0.00 0.00 0.00 31 1017.7
20260501234257 52 296 2.0 3.0 0.00 0.00 0.00 32 1017.6
20260501233755 51 292 0.0 3.0 0.00 0.00 0.00 32 1017.5
20260501233252 52 69 1.0 2.0 0.00 0.00 0.00 31 1017.5
20260501232748 52 308 1.0 2.0 0.00 0.00 0.00 33 1017.8
20260501232245 52 332 3.0 5.0 0.00 0.00 0.00 32 1017.5
20260501231743 52 276 2.0 5.0 0.00 0.00 0.00 31 1017.5
20260501231240 52 328 3.0 5.0 0.00 0.00 0.00 32 1017.5
20260501230733 51 58 1.0 5.0 0.00 0.00 0.00 33 1017.6
20260501230231 52 291 1.0 3.0 0.00 0.00 0.00 32 1017.6
20260501225729 51 279 1.0 2.0 0.00 0.00 0.00 33 1017.7
20260501225226 51 44 1.0 5.0 0.00 0.00 0.00 32 1017.6
20260501224722 52 358 1.0 6.0 0.00 0.00 0.00 31 1017.5
20260501224220 52 37 6.0 10.0 0.00 0.00 0.00 31 1017.3
20260501223715 53 60 8.0 14.0 0.00 0.00 0.00 30 1017.6
20260501223212 53 246 0.0 2.0 0.00 0.00 0.00 31 1017.3
20260501222708 52 40 4.0 5.0 0.00 0.00 0.00 33 1017.5
20260501222205 51 33 5.0 9.0 0.00 0.00 0.00 33 1017.6
20260501221702 53 30 5.0 11.0 0.00 0.00 0.00 32 1017.7
20260501221159 53 336 5.0 7.0 0.00 0.00 0.00 32 1017.6
20260501220657 53 54 5.0 7.0 0.00 0.00 0.00 31 1017.6
20260501220154 52 17 3.0 7.0 0.00 0.00 0.00 31 1017.7
20260501215651 53 297 4.0 6.0 0.00 0.00 0.00 32 1017.7
20260501215146 51 307 2.0 3.0 0.00 0.00 0.00 33 1017.7
20260501214641 51 15 3.0 7.0 0.00 0.00 0.00 33 1017.8
20260501214137 52 20 6.0 13.0 0.00 0.00 0.00 32 1017.3
20260501213634 53 27 4.0 8.0 0.00 0.00 0.00 31 1017.6
20260501213130 53 43 6.0 11.0 0.00 0.00 0.00 31 1017.6
20260501212627 52 17 2.0 9.0 0.00 0.00 0.00 32 1017.8
20260501212123 53 352 5.0 7.0 0.00 0.00 0.00 32 1017.7
20260501211620 53 57 9.0 13.0 0.00 0.00 0.00 32 1017.8
20260501211118 54 355 2.0 5.0 0.00 0.00 0.00 32 1017.7
20260501210615 52 271 0.0 7.0 0.00 0.00 0.00 32 1017.7
20260501210111 52 77 3.0 6.0 0.00 0.00 0.00 31 1017.9
20260501205608 51 26 4.0 5.0 0.00 0.00 0.00 33 1017.8
20260501205105 52 31 2.0 7.0 0.00 0.00 0.00 33 1017.7
20260501204602 52 24 6.0 10.0 0.00 0.00 0.00 33 1017.8
20260501204057 52 29 3.0 6.0 0.00 0.00 0.00 32 1017.9
20260501203554 52 275 2.0 6.0 0.00 0.00 0.00 32 1017.8
20260501203052 52 41 4.0 9.0 0.00 0.00 0.00 32 1017.7